Location: Dehesa de la Cepeda
(40.6574°N, 4.3013°W)
Time: 02:47:05
(UTC+00:00)

Courier 1B - Pass Details

Date: 06 August 2021
Orbit: 963 x 1209 km, 28.3° (Epoch: 17 September)

Event Time Altitude Azimuth Distance (km) Brightness Sun altitude
Rises 17:54:56 0° 240° (WSW) 4,046 11.6 15.9°
Reaches altitude 10° 17:58:06 10° 230° (SW) 3,108 10.9 15.3°
Maximum altitude 18:04:41 31° 172° (S) 1,976 9.1 14.1°
Drops below altitude 10° 18:11:20 10° 114° (ESE) 3,137 9.6 12.8°
Sets 18:14:32 0° 104° (ESE) 4,089 10.1 12.2°
